TimeGMT,TemperatureF,Dew PointF,Humidity,Sea Level PressureIn,VisibilityMPH,Wind Direction,Wind SpeedMPH,Gust SpeedMPH,PrecipitationIn,Events,Conditions,WindDirDegrees,DateUTC
12:00 AM,51,49,92,29.92,12,SSE,11.2,,,Rain,Light Rain,160,2013-11-11 00:00:00
12:00 AM,51.8,50.0,94,29.92,6.2,SSE,11.5,-,N/A,Rain,Light Rain,160,2013-11-11 00:00:00
12:30 AM,51.8,50.0,94,29.89,6.2,SSE,10.4,-,N/A,Rain,Light Rain,160,2013-11-11 00:30:00
1:00 AM,51.8,50.0,94,29.89,6.2,SSE,9.2,-,N/A,Rain,Light Rain,160,2013-11-11 01:00:00
1:30 AM,51.8,51.8,100,29.89,6.2,SSE,5.8,-,N/A,,Light Drizzle,160,2013-11-11 01:30:00
2:00 AM,53.6,51.8,94,29.86,6.2,South,6.9,-,N/A,,Mostly Cloudy,180,2013-11-11 02:00:00
2:30 AM,55.4,53.6,94,29.86,6.2,South,8.1,-,N/A,,Mostly Cloudy,190,2013-11-11 02:30:00
3:00 AM,55.4,53.6,94,29.86,6.2,SW,10.4,-,N/A,,Mostly Cloudy,220,2013-11-11 03:00:00
3:30 AM,55.4,53.6,94,29.86,6.2,SW,15.0,-,N/A,,Mostly Cloudy,220,2013-11-11 03:30:00
4:00 AM,55.4,53.6,94,29.86,6.2,SW,16.1,-,N/A,,Mostly Cloudy,230,2013-11-11 04:00:00
4:30 AM,55.4,53.6,94,29.86,6.2,SW,15.0,-,N/A,,Mostly Cloudy,230,2013-11-11 04:30:00
5:00 AM,55.4,53.6,94,29.86,6.2,SW,16.1,-,N/A,Rain,Light Rain Showers,230,2013-11-11 05:00:00
5:30 AM,55.4,53.6,94,29.86,6.2,WSW,18.4,-,N/A,,Mostly Cloudy,240,2013-11-11 05:30:00
6:00 AM,56,54,93,29.88,12,WSW,20.1,,,Rain,Light Rain Showers,240,2013-11-11 06:00:00
6:00 AM,55.4,55.4,100,29.86,6.2,WSW,18.4,-,N/A,,Mostly Cloudy,240,2013-11-11 06:00:00
6:30 AM,57.2,55.4,94,29.86,6.2,WSW,19.6,-,N/A,,Mostly Cloudy,240,2013-11-11 06:30:00
7:00 AM,57.2,55.4,94,29.89,6.2,WSW,20.7,-,N/A,,Mostly Cloudy,240,2013-11-11 07:00:00
7:30 AM,55.4,55.4,100,29.89,5.0,WSW,21.9,-,N/A,Rain,Light Rain,250,2013-11-11 07:30:00
8:00 AM,55.4,55.4,100,29.89,6.2,WSW,23.0,-,N/A,,Mostly Cloudy,250,2013-11-11 08:00:00
8:30 AM,55.4,55.4,100,29.92,4.3,WSW,21.9,-,N/A,,Light Drizzle,250,2013-11-11 08:30:00
9:00 AM,55.4,55.4,100,29.95,2.5,WSW,23.0,-,N/A,,Light Drizzle,250,2013-11-11 09:00:00
9:30 AM,55.4,55.4,100,29.95,2.5,WSW,20.7,-,N/A,,Light Drizzle,250,2013-11-11 09:30:00
10:00 AM,55.4,55.4,100,29.95,5.0,West,24.2,-,N/A,,Mostly Cloudy,260,2013-11-11 10:00:00
10:30 AM,57.2,53.6,88,29.98,6.2,West,24.2,-,N/A,,Mostly Cloudy,260,2013-11-11 10:30:00
11:00 AM,57.2,53.6,88,29.98,6.2,West,18.4,-,N/A,,Mostly Cloudy,260,2013-11-11 11:00:00
11:30 AM,57.2,53.6,88,30.01,6.2,West,21.9,-,N/A,,Mostly Cloudy,260,2013-11-11 11:30:00
12:00 PM,56,53,86,30.01,19,West,17.9,,,Rain,Light Drizzle,260,2013-11-11 12:00:00
12:00 PM,57.2,53.6,88,30.01,6.2,West,17.3,-,N/A,,Mostly Cloudy,260,2013-11-11 12:00:00
12:30 PM,55.4,53.6,94,30.04,6.2,WSW,15.0,-,N/A,,Mostly Cloudy,250,2013-11-11 12:30:00
1:00 PM,55.4,53.6,94,30.04,5.6,West,17.3,-,N/A,,Light Drizzle,260,2013-11-11 13:00:00
1:30 PM,53.6,50.0,88,30.04,6.2,West,21.9,-,N/A,,Mostly Cloudy,270,2013-11-11 13:30:00
2:00 PM,53.6,48.2,82,30.04,6.2,West,18.4,-,N/A,,Mostly Cloudy,270,2013-11-11 14:00:00
2:30 PM,53.6,48.2,82,30.04,6.2,West,16.1,-,N/A,,Mostly Cloudy,260,2013-11-11 14:30:00
3:00 PM,53.6,48.2,82,30.04,6.2,West,18.4,-,N/A,,Mostly Cloudy,270,2013-11-11 15:00:00
3:30 PM,53.6,48.2,82,30.06,6.2,West,15.0,-,N/A,,Mostly Cloudy,260,2013-11-11 15:30:00
4:00 PM,53.6,48.2,82,30.06,6.2,West,17.3,-,N/A,,Mostly Cloudy,260,2013-11-11 16:00:00
4:30 PM,51.8,48.2,88,30.09,6.2,West,15.0,-,N/A,,Mostly Cloudy,270,2013-11-11 16:30:00
5:00 PM,51.8,46.4,82,30.09,6.2,West,11.5,-,N/A,,Mostly Cloudy,270,2013-11-11 17:00:00
5:30 PM,51.8,46.4,82,30.09,6.2,West,6.9,-,N/A,,Mostly Cloudy,270,2013-11-11 17:30:00
6:00 PM,52,47,78,30.14,14,WSW,8.9,,,,Partly Cloudy,250,2013-11-11 18:00:00
6:00 PM,51.8,48.2,88,30.12,6.2,WSW,9.2,-,N/A,,Mostly Cloudy,240,2013-11-11 18:00:00
6:30 PM,51.8,46.4,82,30.12,6.2,West,10.4,-,N/A,,Mostly Cloudy,260,2013-11-11 18:30:00
7:00 PM,51.8,46.4,82,30.12,6.2,WSW,10.4,-,N/A,,Overcast,250,2013-11-11 19:00:00
7:30 PM,51.8,46.4,82,30.12,6.2,WSW,12.7,-,N/A,,Overcast,250,2013-11-11 19:30:00
8:00 PM,51.8,46.4,82,30.12,6.2,WSW,10.4,-,N/A,,Overcast,240,2013-11-11 20:00:00
8:30 PM,51.8,46.4,82,30.15,6.2,WSW,10.4,-,N/A,,Overcast,240,2013-11-11 20:30:00
9:00 PM,50.0,46.4,87,30.15,6.2,WSW,12.7,-,N/A,,Overcast,250,2013-11-11 21:00:00
9:30 PM,50.0,46.4,87,30.15,6.2,WSW,11.5,-,N/A,,Mostly Cloudy,250,2013-11-11 21:30:00
10:00 PM,50.0,46.4,87,30.15,6.2,WSW,10.4,-,N/A,,Mostly Cloudy,240,2013-11-11 22:00:00
10:30 PM,50.0,46.4,87,30.15,6.2,WSW,10.4,-,N/A,,Mostly Cloudy,240,2013-11-11 22:30:00
11:00 PM,50.0,46.4,87,30.15,6.2,WSW,11.5,-,N/A,,Mostly Cloudy,240,2013-11-11 23:00:00
11:30 PM,50.0,46.4,87,30.15,6.2,WSW,12.7,-,N/A,,Mostly Cloudy,250,2013-11-11 23:30:00